Location: Dillon
(41.1766°N, 107.0923°W)
Time: 12:56:10
(UTC+00:00)

QB50P2 - Pass Details

Date: 01 July 2022
Orbit: 590 x 605 km, 97.9° (Epoch: 07 August)

Event Time Altitude Azimuth Distance (km) Brightness Sun altitude
Rises 09:46:10 0° 353° (N) 2,858 ? -16.5°
Reaches altitude 10° 09:49:06 10° 331° (NNW) 1,952 ? -16.2°
Maximum altitude 09:51:34 15° 296° (WNW) 1,630 ? -15.9°
Enters shadow 09:53:06 13° 271° (W) 1,761 ? -15.7°
